Content
SEND FEEDBACK

Daily
Averages
Monthly
Summary
Saudi Arabia

JEDDAH, SAUDI ARABIA


Home > Middle East > Saudi Arabia
Elevation: 39 feet     Latitude: 21 40N     Longitude: 039 09E

WEATHER
 
SELECT A DAY
Number of Records: 172,175;   Date Range: 7/1/96 - 8/30/14
 
SHARE

PRINT THIS DATA

[ ← Previous Day ]
WEATHER ALMANAC - JANUARY 31, 2013
[ Next Day → ]
[ °C ]   °F
Weather ElementAverageHighLow
Temperature72.1 °F77 °F (1:00 pm)68 °F (6:00 am)
Dewpoint53.3 °F57.2 °F (3:00 am)48.2 °F (11:00 pm)
Humidity50.8 %64 % (3:00 am)36 % (9:00 pm)
Barometer29.90 in29.98 in (9:00 pm)29.83 in (1:00 am)
Wind Speed9.8 mph18.4 mph (3:00 pm)
Weather ElementAverage
Visibility6.2 mi
Wind DirectionWSW (254.2 °)

Weather ElementTotal
Precipitation---
Cooling Degree Days7.5 (Base 65)
Growing Degree Days22.5 (Base 50)
Averaged from 26 records on January 31, 2013
WEATHER CONDITIONS BREAKOUT
WIND DIRECTION BREAKOUT
WEATHER BY HOUR - JANUARY 31, 2013
[ °C ]   °F
Local TimeTemperatureDewpointHumidityBarometerVisibilityWind DirectionWind SpeedGust SpeedPrecipitationEventsConditions
1:00 AM69.8 °F55.4 °F60 %29.83 in6.2 miNorth (350°)6.9 mphScattered Clouds
2:00 AM69.8 °F55.4 °F60 %29.83 in6.2 miNorth (350°)6.9 mphPartly Cloudy
3:00 AM69.8 °F57.2 °F64 %29.83 in6.2 miNorth (350°)4.6 mphPartly Cloudy
4:00 AM69.8 °F57.2 °F64 %29.83 in6.2 miNNE (30°)3.5 mphScattered Clouds
5:00 AM69.8 °F55.4 °F60 %29.83 in6.2 miNNE (30°)4.6 mphScattered Clouds
6:00 AM68.0 °F55.4 °F64 %29.83 in6.2 miNNE (30°)4.6 mphScattered Clouds
7:00 AM68.0 °F55.4 °F64 %29.86 in6.2 miNNE (20°)4.6 mphScattered Clouds
8:00 AM69.8 °F55.4 °F60 %29.89 in6.2 miNorth (10°)3.5 mphScattered Clouds
9:00 AM73.0 °F55.0 °F44 %29.92 in6.0 miNNW (340°)5.8 mphPartly Cloudy
9:00 AM73.4 °F55.4 °F53 %29.92 in6.2 miNNW (340°)5.8 mphMostly Cloudy
10:00 AM75.2 °F55.4 °F50 %29.92 in6.2 miNW (320°)8.1 mphMostly Cloudy
11:00 AM75.2 °F55.4 °F50 %29.92 in6.2 miNorth (360°)13.8 mphMostly Cloudy
12:00 PM75.2 °F53.6 °F47 %29.92 in6.2 miNNW (330°)11.5 mphMostly Cloudy
1:00 PM77.0 °F53.6 °F44 %29.89 in6.2 miNW (310°)13.8 mphMostly Cloudy
2:00 PM77.0 °F53.6 °F44 %29.89 in6.2 miNW (310°)17.3 mphMostly Cloudy
3:00 PM75.2 °F51.8 °F44 %29.89 in6.2 miWNW (300°)18.4 mphScattered Clouds
4:00 PM75.2 °F51.8 °F44 %29.92 in6.2 miWNW (300°)16.1 mphScattered Clouds
5:00 PM73.4 °F51.8 °F47 %29.92 in6.2 miWNW (300°)18.4 mphMostly Cloudy
6:00 PM72.0 °F52.0 °F38 %29.94 in6.0 miWNW (300°)11.5 mphMostly Cloudy
6:00 PM71.6 °F51.8 °F50 %29.92 in6.2 miWNW (300°)11.5 mphMostly Cloudy
7:00 PM71.6 °F50.0 °F46 %29.95 in6.2 miWNW (300°)11.5 mphScattered Clouds
8:00 PM71.6 °F50.0 °F46 %29.95 in6.2 miNNW (330°)11.5 mphScattered Clouds
9:00 PM71.0 °F50.0 °F36 %29.98 in6.0 miNNW (330°)11.5 mphScattered Clouds
9:00 PM71.6 °F50.0 °F46 %29.98 in6.2 miNNW (330°)11.5 mphScattered Clouds
10:00 PM69.8 °F50.0 °F49 %29.98 in6.2 miNNW (330°)9.2 mphScattered Clouds
11:00 PM69.8 °F48.2 °F46 %29.98 in6.2 miNorth (10°)9.2 mphScattered Clouds
Hourly data recorded from OEJN, located miles away from Jeddah, Saudi Arabia







STORIES FROM OUR PARTNERS